User: anonymous   Login
Location: Unspecified
(0.0000°N, 0.0000°E)
Time: 02:53:38
(UTC+01:00)
Language:

Delta 2 Rocket - Orbit

View from above orbital plane
View from above orbital plane
View from above satellite
View from above satellite

Ground track
Ground track

The orbit data is extracted from the following two-line orbital elements,

1 20453U 90008B   18054.48583413  .00000969  00000-0  58829-4 0  9995
2 20453  35.6234 192.9628 0285881  99.6080 263.7051 14.83884582485541
Epoch (UTC): 23 February 2018 11:39:36
Eccentricity: 0.0285881
inclination: 35.6234°
perigee height: 417 km
apogee height: 817 km
right ascension of ascending node: 192.9628°
argument of perigee: 99.6080°
revolutions per day: 14.83884582
mean anomaly at epoch: 263.7051°
orbit number at epoch: 48554

The dashed part of the orbit path shows where the satellite is in the earth's shadow,  

DLR